Location: *
(39.6167°S, 171.5333°W)
Time: 06:08:31
(UTC+00:00)

Cosmos 2297 Rocket - Pass Details

Date: 13 May 2021
Orbit: 838 x 845 km, 71.0° (Epoch: 16 June)

Event Time Altitude Azimuth Distance (km) Brightness Sun altitude
Exits shadow 16:22:18 30° 205° (SSW) 1,490 3.2 -23.1°
Drops below altitude 10° 16:25:53 10° 173° (S) 2,490 4.6 -22.4°
Sets 16:28:34 0° 164° (SSE) 3,430 5.5 -21.9°
